DELTA 1 DEB, 21471

Orbit data source: Space-Track

DELTA 1 DEB, 21471 is space debris in SSO originally from a launch on Thu, 12 Jun 1975 UTC launched from the Air Force Western Test Range (AFWTR). Debris objects in space refer to the collection of defunct objects orbiting the Earth. Examples of debris include non-operational satellites, rocket bodies, and fragments generated from explosions, collisions, or faulty payload assembly.

Loading next visibility...
Identifier
21471, 1975-052FF
Orbit
SSO
Country
Flag of USUS
Related business
Manufacturer
Unknown
Mission
Spacecraft
Bus & Motor
Unknown
Mass
Unknown
Launch date (UTC)
1975-06-12 (51 years ago)
Launch vehicle
Unknown
Launch site
Air Force Western Test Range (AFWTR)
Object type
Payload
Rocket body
Debris
Shape & HBR
Unknown shape, 0.1 m
Radar Cross Section
Small (<0.1 m²)

Expand to show TLE details & history
Last TLE update: 1 day ago

TLE from 1 day ago
0 DELTA 1 DEB
1 21471U 75052FF  25350.41962914  .00000407  00000-0  51434-3 0  9996
2 21471  99.9280 140.1856 0248842  87.0550 338.6354 13.57517887711656
Epoch: 2025-12-16T10:04Z
TLE epoch observation values (Epoch: 2025-12-16T10:04:15.957Z)
Latitude
62.96156°
Longitude
-116.13119°
Altitude
884.033 km
Speed
7.501 km/s
True Right ascension
08h 00m 57s
True Declination
62° 49' 28"
Sunlit
Object was in full shadow at epoch
Visualization orbit readout
Latitude
Unknown
Longitude
Unknown
Altitude
Unknown
Speed
Unknown
Apparent Right ascension
Unknown
Apparent Declination
Unknown
Sunlit
N/A
Visualization observer readout
Local Sidereal Time
13:07:27
Azimuth
Unknown
Elevation
Unknown
Doppler factor
Unknown
Orbital elements
Apogee altitude
1,226.672 km
Perigee altitude
857.382 km
Semi-major axis
7,420.164 km
Eccentricity
0.02488
Inclination
99.928°
RAAN
140.1856°
Arg. of periapsis
87.055°
True anomaly
337.5657°
Mean anomaly
338.6354°
Eccentric anomaly
338.10369°
Mean motion
3.39565 °/min
Orbital period
106.02 mins
BSTAR
0.00051434
Loading maneuver chart data...
Computing Atmospheric mass density...
Loading historical data...
Loading historical data...
Loading historical data...
Loading historical data...
Loading historical data...
Loading historical data...
Loading historical data...

Documentation

Showing up to 5 results
|